Skip Page Navigation
NASA JPL Caltech
NASA Logo - Jet Propulsion Laboratory + View the NASA Portal
+ Near-Earth Object (NEO) Program
Search JPL
JPL Home Earth Solar System Stars & Galaxies Technology
JPL Solar System Dynamics
BODIES ORBITS EPHEMERIDES TOOLS PHYSICAL DATA DISCOVERY FAQ SITE MAP
JPL Small-Body Database Browser
Search: [ help ]  
30417 Staudt (2000 LF)
Classification: Main-belt Asteroid          SPK-ID: 2030417
Ephemeris | Orbit Diagram | Orbital Elements | Physical Parameters | Discovery Circumstances | Close-Approach Data ]

[ show orbit diagram ]
Orbital Elements at Epoch 2457600.5 (2016-Jul-31.0) TDB
Reference: JPL 16 (heliocentric ecliptic J2000)
 Element Value Uncertainty (1-sigma)   Units 
e .2033703683057761 4.8894e-08  
a 2.662089179814678 1.7873e-08 au
q 2.120699122852946 1.3109e-07 au
i 3.604889915615938 4.9885e-06 deg
node 104.2462653511388 8.6194e-05 deg
peri 213.8761960510004 8.7549e-05 deg
M 210.8092171459839 1.8554e-05 deg
tp 2458257.963760246898
(2018-May-19.46376025)
8.637e-05 JED
period 1586.471691890528
4.34
1.5977e-05
4.374e-08
d
yr
n .2269186408053736 2.2853e-09 deg/d
Q 3.203479236776411 2.1508e-08 au
  Orbit Determination Parameters
   # obs. used (total)      1059  
   data-arc span      8094 days (22.16 yr)  
   first obs. used      1994-01-04  
   last obs. used      2016-03-03  
   planetary ephem.      DE431  
   SB-pert. ephem.      SB431-BIG16  
   condition code      0  
   fit RMS      .54347  
   data source      ORB  
   producer      Otto Matic  
   solution date      2016-Mar-24 17:03:55  

Additional Information
 Earth MOID = 1.10799 au 
 Jupiter MOID = 2.0949 au 
 T_jup = 3.352 
[ show covariance matrix ]

Ephemeris | Orbit Diagram | Orbital Elements | Physical Parameters | Discovery Circumstances | Close-Approach Data ]

Physical Parameter Table
Parameter Symbol Value Units Sigma Reference Notes
absolute magnitude H 14.6 mag n/a MPO333094  

30417 Staudt           Discovered 2000 June 1 by P. G. Comba at Prescott.
Karl Georg Christian von Staudt (1798-1867), a professor at the University of Erlangen, gave the first fully rigorous treatment of projective geometry, without making use of distances, perpendiculars and angles.
NOTE: some special characters may not display properly (any characters within {} are an attempt to place the proper accent above a character)
Reference: 20020328/MPCPages.arcLast Updated: 2003-10-02

[ show close-approach data ]
Alternate Designations
 2000 LF = 1995 DV10 
Ephemeris | Orbit Diagram | Orbital Elements | Physical Parameters | Discovery Circumstances | Close-Approach Data ]
ABOUT SSD CREDITS/AWARDS PRIVACY/COPYRIGHT GLOSSARY LINKS
FirstGov 2016-May-02 12:35 UT
(server date/time)  
NASA Home Page
Site Manager:   Ryan S. Park
Webmaster  Alan B. Chamberlin